This is the latest recevied weather packets stored in our database for station/object K1ADM. If no packets are shown the sender has not sent any weather packets the latest 10 day(s).
| Time | Temp. | Humidity | Pressure | Rain* | Wind** | Luminosity | Snow |
|---|---|---|---|---|---|---|---|
| 1777787103 | 6.11° C | 88% | 1008.2 hPa | 0 mm | - | - | - |
| 1777786203 | 6.11° C | 88% | 1008.4 hPa | 0 mm | - | - | - |
| 1777785903 | 6.11° C | 88% | 1008.3 hPa | 0 mm | - | - | - |
| 1777785304 | 6.11° C | 88% | 1008.4 hPa | 0 mm | - | - | - |
| 1777784403 | 6.11° C | 88% | 1008.7 hPa | 0 mm | - | - | - |
| 1777780204 | 6.11° C | 88% | 1009.8 hPa | 0 mm | - | - | - |
| 1777779903 | 6.11° C | 88% | 1009.8 hPa | 0 mm | - | - | - |
| 1777779303 | 6.11° C | 88% | 1009.8 hPa | 0 mm | - | - | - |
| 1777778703 | 6.11° C | 88% | 1009.7 hPa | 0.25 mm | - | - | - |
| 1777770902 | 6.67° C | 88% | 1010.6 hPa | 0.25 mm | - | - | - |
| 1777770002 | 6.11° C | 88% | 1010.5 hPa | 0.25 mm | - | - | - |
| 1777769402 | 6.11° C | 88% | 1010.5 hPa | 0.25 mm | - | - | - |
| 1777767002 | 6.67° C | 87% | 1010.4 hPa | 0.76 mm | - | - | - |
| 1777765501 | 6.67° C | 87% | 1010.3 hPa | 1.02 mm | - | - | - |
| 1777765201 | 6.67° C | 87% | 1010.3 hPa | 1.27 mm | - | - | - |
| 1777760102 | 7.22° C | 86% | 1010.2 hPa | 0 mm | - | - | - |
| 1777757402 | 7.78° C | 85% | 1010.4 hPa | 0 mm | - | - | - |
| 1777756502 | 7.78° C | 85% | 1010.4 hPa | 0 mm | - | - | - |
| 1777755602 | 8.33° C | 85% | 1010.3 hPa | 0 mm | - | - | - |
| 1777754702 | 8.33° C | 84% | 1010.4 hPa | 0 mm | - | - | - |
| 1777754102 | 8.33° C | 84% | 1010.3 hPa | 0 mm | - | - | - |
| 1777750502 | 8.89° C | 83% | 1010.9 hPa | 0 mm | - | - | - |
| 1777746002 | 7.22° C | 85% | 1011.2 hPa | 0.25 mm | - | - | - |
| 1777743602 | 7.22° C | 84% | 1011.1 hPa | 0.25 mm | - | - | - |
| 1777743002 | 7.22° C | 84% | 1011.2 hPa | 0.51 mm | - | - | - |
* Rain latest hour (hover to see other rain measurements)
** Current wind speed in m/s (hover to see current wind gust speed)